Location: Kalispell
(48.1967°N, 114.3128°W)
Time: 01:15:07
(UTC-07:00)

Amateur Radio Satellites - All Passes

Search period start: 21 November 2014 00:45
Search period end: 22 November 2014 00:45
Location: Kalispell, 48.1967°N, 114.3128°W

Satellite Date Start Highest point End Downlink Frequencies (MHz)
Time Altitude Azimuth
QB50P1 21 Nov 00:46:49 00:50:17 25° 295° (WNW) 00:53:45 145.935-145.965
CUSAT 1 21 Nov 00:51:35 00:55:22 79° 79° (ENE) 01:00:30 437.405
DANDE 21 Nov 00:52:27 00:56:04 66° 78° (ENE) 01:00:56 436.750
STARS 21 Nov 00:55:34 00:57:31 13° 57° (ENE) 00:59:28 437.465
BEESAT 21 Nov 00:59:42 01:04:28 75° 73° (ENE) 01:09:17 436.000
AUBIESAT-1 21 Nov 01:02:20 01:06:04 41° 257° (WSW) 01:10:10 437.475
M-CUBED/EXP-1 PRIME 21 Nov 01:03:37 01:07:16 37° 258° (WSW) 01:11:16 437.505
PCSat 21 Nov 01:09:19 01:11:19 12° 345° (NNW) 01:13:18 145.827
POPSAT HIP 1 21 Nov 01:11:32 01:14:06 16° 300° (WNW) 01:16:39 437.405
TIGRISAT 21 Nov 01:18:24 01:19:52 12° 303° (WNW) 01:21:20 435.000
KKS-1 21 Nov 01:21:55 01:25:47 30° 65° (ENE) 01:29:39 437.445
YUBILEINY 21 Nov 01:24:01 01:26:43 12° 68° (ENE) 01:29:25 435.215
BUGSAT 1 21 Nov 01:28:52 01:30:39 13° 302° (WNW) 01:32:25 437.445
ISS 21 Nov 01:36:59 01:39:12 17° 138° (SE) 01:41:25 145.825
MaSat-1 21 Nov 01:43:55 01:46:11 45° 57° (ENE) 01:48:26 437.345
ITUPSAT 1 21 Nov 01:52:18 01:56:47 38° 263° (W) 02:01:18 437.325
AIST 2 21 Nov 02:00:30 02:01:42 11° 343° (NNW) 02:02:54 435.215
SWISSCUBE 21 Nov 02:06:07 02:10:10 27° 266° (W) 02:14:16 437.505
Oscar 19 21 Nov 02:15:12 02:20:22 70° 103° (ESE) 02:25:31 437.125/150
STARS 21 Nov 02:28:55 02:33:21 90° 70° (ENE) 02:37:47 437.465
CUSAT 1 21 Nov 02:37:23 02:38:22 11° 269° (W) 02:39:24 437.405
DANDE 21 Nov 02:38:01 02:39:27 12° 268° (W) 02:40:59 436.750
BEESAT 21 Nov 02:40:10 02:42:53 15° 271° (W) 02:45:37 436.000
RS-15 21 Nov 02:44:50 02:55:54 70° 240° (WSW) 03:07:26 29.354- 29.394
Gurwin Techsat 1B 21 Nov 02:55:12 03:00:12 39° 97° (E) 03:05:09 435.225
PCSat 21 Nov 02:55:37 02:57:21 11° 13° (NNE) 02:59:05 145.827
ITAMSAT 1 21 Nov 02:55:44 03:00:55 65° 102° (ESE) 03:06:03 435.822/435.867
KKS-1 21 Nov 02:58:18 03:02:22 34° 263° (W) 03:06:26 437.445
ISS 21 Nov 03:12:09 03:15:27 83° 156° (SSE) 03:18:46 145.825
YUBILEINY 21 Nov 03:12:55 03:21:26 57° 90° (E) 03:29:56 435.215
MOZHAYETS 4 21 Nov 03:23:59 03:27:03 18° 60° (ENE) 03:30:09
AO-7 21 Nov 03:35:47 03:41:58 22° 89° (E) 03:48:06 29.400- 29.500
Oscar 19 21 Nov 03:55:32 03:59:13 20° 302° (WNW) 04:02:53 437.125/150
HORYU 2 21 Nov 03:59:33 04:04:02 71° 103° (ESE) 04:08:31 437.375
STARS 21 Nov 04:09:27 04:10:30 11° 273° (W) 04:11:33 437.465
Gurwin Techsat 1B 21 Nov 04:35:21 04:40:06 34° 296° (WNW) 04:44:49 435.225
ITAMSAT 1 21 Nov 04:36:05 04:39:58 22° 301° (WNW) 04:43:49 435.822/435.867
PCSat 21 Nov 04:38:11 04:42:46 27° 38° (NE) 04:47:19 145.827
STRAND 1 21 Nov 04:46:43 04:49:15 14° 54° (NE) 04:51:46 437.568
ISS 21 Nov 04:49:07 04:52:18 44° 355° (N) 04:55:30 145.825
CUBESAT XI-V 21 Nov 04:51:01 04:52:55 12° 55° (NE) 04:54:49 437.345
BEESAT 3 21 Nov 04:58:34 05:01:53 22° 35° (NE) 05:05:11 437.485
PRISM 21 Nov 04:58:59 05:02:40 30° 66° (ENE) 05:06:24 437.425
MOZHAYETS 4 21 Nov 04:59:16 05:03:49 65° 259° (WSW) 05:08:26
RS-15 21 Nov 04:59:16 05:06:10 19° 263° (W) 05:13:16 29.354- 29.394
SO-50 21 Nov 05:04:59 05:08:46 27° 115° (ESE) 05:12:41 436.795
BEESAT 2 21 Nov 05:09:23 05:12:52 24° 36° (NE) 05:16:19 435.950
YUBILEINY 21 Nov 05:10:31 05:18:36 39° 293° (WNW) 05:26:44 435.215
AIST 2 21 Nov 05:19:31 05:22:42 20° 32° (NNE) 05:25:53 435.215
AO-7 21 Nov 05:27:26 05:35:51 89° 110° (ESE) 05:44:14 29.400- 29.500
JAS-2 21 Nov 05:28:11 05:35:19 46° 95° (E) 05:41:42 435.910
CUTE-I 21 Nov 05:36:37 05:39:05 13° 86° (E) 05:41:31 437.470
HORYU 2 21 Nov 05:37:28 05:40:13 16° 301° (WNW) 05:42:58 437.375
PCSat 21 Nov 06:21:17 06:26:44 74° 239° (WSW) 06:32:07 145.827
STRAND 1 21 Nov 06:22:28 06:27:36 77° 73° (ENE) 06:32:47 437.568
CUBESAT XI-V 21 Nov 06:24:51 06:29:34 78° 74° (ENE) 06:34:19 437.345
ISS 21 Nov 06:26:00 06:29:17 61° 16° (NNE) 06:32:34 145.825
AIST 1 21 Nov 06:27:45 06:30:17 15° 64° (ENE) 06:32:49
Cubesat XI-IV 21 Nov 06:31:45 06:36:46 39° 97° (E) 06:41:43 437.490
PRISM 21 Nov 06:34:31 06:38:13 30° 264° (W) 06:41:57 437.425
BEESAT 3 21 Nov 06:36:22 06:40:34 71° 235° (SW) 06:44:43 437.485
O/OREOS (USA 219) 21 Nov 06:38:32 06:41:38 19° 101° (E) 06:44:44 437.305
SO-50 21 Nov 06:44:39 06:49:05 50° 315° (NW) 06:53:41 436.795
BEESAT 2 21 Nov 06:47:20 06:51:31 62° 236° (WSW) 06:55:39 435.950
AIST 2 21 Nov 06:57:36 07:01:57 90° 59° (ENE) 07:06:14 435.215
GONETS M04 21 Nov 07:12:10 07:15:46 13° 69° (ENE) 07:19:23
JAS-2 21 Nov 07:13:18 07:20:18 44° 298° (WNW) 07:26:39 435.910
CUTE-I 21 Nov 07:14:35 07:19:58 86° 105° (ESE) 07:25:17 437.470
AO-7 21 Nov 07:21:04 07:27:43 28° 312° (NW) 07:34:23 29.400- 29.500
HO-68 21 Nov 07:54:30 07:57:25 13° 83° (E) 08:00:18 435.675
ISS 21 Nov 08:02:47 08:05:51 35° 214° (SW) 08:08:55 145.825
AIST 1 21 Nov 08:04:05 08:08:29 67° 264° (W) 08:12:49
STRAND 1 21 Nov 08:04:14 08:07:23 16° 271° (W) 08:10:34 437.568
CUBESAT XI-V 21 Nov 08:05:07 08:07:36 14° 273° (W) 08:10:05 437.345
PCSat 21 Nov 08:07:09 08:09:11 12° 258° (WSW) 08:11:13 145.827
Cubesat XI-IV 21 Nov 08:12:01 08:16:48 34° 296° (WNW) 08:21:33 437.490
O/OREOS (USA 219) 21 Nov 08:16:13 08:20:38 56° 300° (WNW) 08:25:03 437.305
SO-50 21 Nov 08:27:53 08:30:45 16° 338° (NNW) 08:33:41 436.795
AIST 2 21 Nov 08:38:08 08:39:55 12° 251° (WSW) 08:41:41 435.215
CUTE 1.7 & AOD 2 21 Nov 08:45:24 08:48:33 20° 92° (E) 08:51:41 437.475
CUTE-I 21 Nov 08:55:57 08:59:21 18° 304° (NW) 09:02:45 437.470
DOVE 4 21 Nov 08:57:07 08:59:03 13° 89° (E) 09:00:59 437.250
POPSAT HIP 1 21 Nov 08:59:02 09:00:02 11° 56° (NE) 09:01:02 437.405
JAS-2 21 Nov 09:00:49 09:03:20 12° 320° (NW) 09:05:48 435.910
GONETS M04 21 Nov 09:02:02 09:10:37 61° 92° (E) 09:19:16
Oscar 11 21 Nov 09:05:41 09:07:04 11° 87° (E) 09:08:28 145.826/435.025
TIGRISAT 21 Nov 09:07:15 09:10:01 17° 61° (ENE) 09:12:46 435.000
BUGSAT 1 21 Nov 09:12:46 09:14:36 13° 58° (ENE) 09:16:25 437.445
GOMX 1 21 Nov 09:13:32 09:16:59 25° 94° (E) 09:20:25 467.674
BRITE-PL 21 Nov 09:14:56 09:18:47 34° 96° (E) 09:22:34 437.365/2234.400
UNISAT 6 21 Nov 09:17:19 09:20:32 21° 63° (ENE) 09:23:46 437.425
DX 1 21 Nov 09:19:42 09:22:03 14° 89° (E) 09:24:23 434.975-435.025
SEEDS 21 Nov 09:24:39 09:28:42 41° 98° (E) 09:32:45 437.485
POLYITAN 1 21 Nov 09:26:53 09:29:57 20° 62° (ENE) 09:33:01 437.675
QB50P2 21 Nov 09:30:55 09:34:09 21° 63° (ENE) 09:37:22 145.880/145.840
HO-68 21 Nov 09:39:21 09:46:32 66° 104° (ESE) 09:53:38 435.675
DUCHIFAT 1 21 Nov 09:40:09 09:43:39 25° 65° (ENE) 09:47:08 145.980
ZACube-1 21 Nov 09:43:41 09:45:26 12° 88° (E) 09:47:12 437.345
ANTELSAT 21 Nov 09:44:32 09:48:28 37° 68° (ENE) 09:52:25 437.575/2403.000
CANX-2 21 Nov 09:45:03 09:49:22 84° 104° (ESE) 09:53:39 2200.000
AAUSAT CUBESAT 2 21 Nov 09:52:11 09:56:23 62° 101° (E) 10:00:34 437.432
NANOSAT C BR1 21 Nov 09:58:08 10:02:04 37° 68° (ENE) 10:05:59 145.865
O/OREOS (USA 219) 21 Nov 10:00:00 10:01:05 11° 321° (NW) 10:02:10 437.305
COMPASS 1 21 Nov 10:03:45 10:08:01 90° 285° (WNW) 10:12:16 437.405
HUMSAT D 21 Nov 10:06:26 10:08:26 13° 89° (E) 10:10:26 437.325/437.525
QB50P1 21 Nov 10:07:06 10:11:11 45° 70° (ENE) 10:15:16 145.935-145.965
CINEMA 3 21 Nov 10:10:41 10:14:42 45° 99° (E) 10:18:46 145.822/145.860
SO-50 21 Nov 10:11:56 10:13:19 11° 3° (N) 10:14:43 436.795
FUNcube-1 21 Nov 10:18:46 10:22:23 27° 95° (E) 10:26:01 145.935
CUBEBUG 2 21 Nov 10:20:03 10:23:57 37° 97° (E) 10:27:54 437.445
CUTE 1.7 & AOD 2 21 Nov 10:20:38 10:24:44 46° 289° (WNW) 10:28:50 437.475
DELFI C3 21 Nov 10:23:58 10:28:04 60° 101° (E) 10:32:09 145.870
UKube-1 21 Nov 10:24:08 10:28:27 59° 102° (ESE) 10:32:43 .
50 SAT 21 Nov 10:29:33 10:32:27 19° 92° (E) 10:35:21 437.505
POPSAT HIP 1 21 Nov 10:30:57 10:35:14 79° 74° (ENE) 10:39:30 437.405
UWE-3 21 Nov 10:31:18 10:35:18 42° 98° (E) 10:39:21 435.000/436.395/437.385
DOVE 4 21 Nov 10:33:13 10:37:20 66° 287° (WNW) 10:41:28 437.250
Oscar 11 21 Nov 10:39:29 10:43:51 84° 284° (WNW) 10:48:12 145.826/435.025
TIGRISAT 21 Nov 10:42:09 10:46:22 59° 259° (W) 10:50:36 435.000
ESTCUBE 1 21 Nov 10:42:14 10:44:36 14° 88° (E) 10:46:57 437.505/2401.250
BUGSAT 1 21 Nov 10:45:11 10:49:29 88° 256° (WSW) 10:53:46 437.445
GOMX 1 21 Nov 10:51:28 10:55:14 33° 292° (WNW) 10:58:58 467.674
UNISAT 6 21 Nov 10:52:58 10:57:06 45° 261° (W) 11:01:13 437.425
BRITE-PL 21 Nov 10:53:47 10:57:14 25° 295° (WNW) 11:00:36 437.365/2234.400
DX 1 21 Nov 10:54:26 10:58:47 68° 288° (WNW) 11:03:05 434.975-435.025
GONETS M04 21 Nov 11:00:00 11:07:57 37° 294° (WNW) 11:16:00
SEEDS 21 Nov 11:00:59 11:04:20 23° 296° (WNW) 11:07:40 437.485
VELOX 1 21 Nov 11:01:02 11:05:21 48° 100° (E) 11:09:37 145.980
POLYITAN 1 21 Nov 11:01:26 11:05:36 50° 260° (W) 11:09:46 437.675
QB50P2 21 Nov 11:05:42 11:09:49 46° 261° (W) 11:13:56 145.880/145.840
DUCHIFAT 1 21 Nov 11:15:24 11:19:23 37° 262° (W) 11:23:22 145.980
ZACube-1 21 Nov 11:18:09 11:22:20 73° 286° (WNW) 11:26:33 437.345
ANTELSAT 21 Nov 11:21:55 11:25:25 24° 266° (W) 11:28:55 437.575/2403.000
CANX-2 21 Nov 11:22:45 11:24:42 13° 302° (WNW) 11:26:39 2200.000
AISAT 21 Nov 11:23:55 11:28:23 83° 104° (ESE) 11:32:49 437.250
HO-68 21 Nov 11:27:40 11:33:48 32° 304° (NW) 11:39:55 435.675
AAUSAT CUBESAT 2 21 Nov 11:29:00 11:31:38 16° 299° (WNW) 11:34:17 437.432
NANOSAT C BR1 21 Nov 11:34:32 11:38:04 25° 266° (W) 11:41:35 145.865
HUMSAT D 21 Nov 11:40:36 11:44:43 67° 286° (WNW) 11:48:51 437.325/437.525
COMPASS 1 21 Nov 11:41:31 11:43:06 12° 302° (WNW) 11:44:42 437.405
QB50P1 21 Nov 11:44:07 11:47:19 20° 268° (W) 11:50:31 145.935-145.965
CINEMA 3 21 Nov 11:48:38 11:51:41 20° 297° (WNW) 11:54:45 145.822/145.860
SO-50 21 Nov 11:52:14 11:55:45 20° 28° (NNE) 11:59:18 436.795
FUNcube-1 21 Nov 11:55:04 11:58:47 32° 293° (WNW) 12:02:32 145.935
CUBEBUG 1 21 Nov 11:56:26 12:00:50 68° 102° (ESE) 12:05:10 437.445
CUBEBUG 2 21 Nov 11:57:10 12:00:32 24° 295° (WNW) 12:03:56 437.445
Oscar 19 21 Nov 11:58:05 12:02:01 23° 60° (ENE) 12:05:59 437.125/150
DELFI C3 21 Nov 12:00:23 12:02:58 16° 299° (WNW) 12:05:33 145.870
UKube-1 21 Nov 12:01:16 12:04:12 18° 300° (WNW) 12:07:08 .
50 SAT 21 Nov 12:04:10 12:08:01 44° 290° (WNW) 12:11:52 437.505
SPROUT 21 Nov 12:06:02 12:09:23 22° 93° (E) 12:12:42 437.525
UWE-3 21 Nov 12:08:27 12:11:39 22° 296° (WNW) 12:14:52 435.000/436.395/437.385
POPSAT HIP 1 21 Nov 12:10:06 12:11:42 12° 272° (W) 12:13:18 437.405
TISAT 1 21 Nov 12:12:15 12:15:54 28° 95° (E) 12:19:30 437.305
ESTCUBE 1 21 Nov 12:17:27 12:22:02 74° 286° (WNW) 12:26:33 437.505/2401.250
Oscar 11 21 Nov 12:17:49 12:19:19 12° 303° (WNW) 12:20:50 145.826/435.025
SHINDAISAT 21 Nov 12:28:15 12:30:11 63° 309° (NW) 12:32:09 437.305
VELOX 1 21 Nov 12:38:17 12:41:40 22° 298° (WNW) 12:45:02 145.980
ITAMSAT 1 21 Nov 12:39:33 12:43:35 23° 60° (ENE) 12:47:38 435.822/435.867
AUBIESAT-1 21 Nov 12:42:33 12:45:00 14° 93° (E) 12:47:26 437.475
Gurwin Techsat 1B 21 Nov 12:42:55 12:45:59 16° 55° (NE) 12:49:04 435.225
M-CUBED/EXP-1 PRIME 21 Nov 12:43:45 12:46:37 15° 94° (E) 12:49:29 437.505
AO-7 21 Nov 12:51:34 12:55:23 14° 33° (NNE) 12:59:13 29.400- 29.500
BEESAT 21 Nov 12:57:56 13:00:41 15° 89° (E) 13:03:25 436.000
AISAT 21 Nov 13:02:08 13:04:25 14° 303° (WNW) 13:06:42 437.250
YUBILEINY 21 Nov 13:18:32 13:26:20 34° 65° (ENE) 13:34:03 435.215
HORYU 2 21 Nov 13:27:40 13:30:02 14° 57° (ENE) 13:32:25 437.375
SO-50 21 Nov 13:32:17 13:37:08 71° 49° (NE) 13:42:02 436.795
CUBEBUG 1 21 Nov 13:34:01 13:36:43 16° 301° (WNW) 13:39:24 437.445
Oscar 19 21 Nov 13:35:58 13:41:00 58° 259° (W) 13:46:04 437.125/150
SPROUT 21 Nov 13:41:37 13:45:40 42° 291° (WNW) 13:49:42 437.525
TISAT 1 21 Nov 13:47:59 13:51:46 32° 293° (WNW) 13:55:31 437.305
ITUPSAT 1 21 Nov 13:49:07 13:53:43 42° 98° (E) 13:58:16 437.325
ESTCUBE 1 21 Nov 13:56:43 13:58:06 11° 305° (NW) 13:59:29 437.505/2401.250
SWISSCUBE 21 Nov 14:02:01 14:06:49 61° 102° (ESE) 14:11:33 437.505
CUSAT 1 21 Nov 14:09:43 14:12:33 72° 100° (E) 14:15:09 437.405
DANDE 21 Nov 14:13:11 14:16:08 62° 100° (E) 14:18:46 436.750
AUBIESAT-1 21 Nov 14:15:41 14:20:36 89° 112° (ESE) 14:25:31 437.475
STARS 21 Nov 14:17:16 14:19:20 13° 88° (E) 14:21:23 437.465
M-CUBED/EXP-1 PRIME 21 Nov 14:17:16 14:22:11 83° 291° (WNW) 14:27:08 437.505
ITAMSAT 1 21 Nov 14:17:32 14:22:41 60° 258° (WSW) 14:27:53 435.822/435.867
Gurwin Techsat 1B 21 Nov 14:19:52 14:25:12 85° 74° (ENE) 14:30:33 435.225
BEESAT 21 Nov 14:34:17 14:39:06 75° 287° (WNW) 14:43:52 436.000
AO-7 21 Nov 14:38:25 14:46:05 44° 57° (ENE) 14:53:47 29.400- 29.500
KKS-1 21 Nov 14:45:43 14:49:48 35° 97° (E) 14:53:52 437.445
HORYU 2 21 Nov 15:01:42 15:06:07 81° 256° (WSW) 15:10:36 437.375
O/OREOS (USA 219) 21 Nov 15:05:34 15:07:25 12° 41° (NE) 15:09:16 437.305
RS-15 21 Nov 15:10:11 15:13:16 12° 92° (E) 15:16:20 29.354- 29.394
SO-50 21 Nov 15:13:44 15:17:15 20° 248° (WSW) 15:20:46 436.795
YUBILEINY 21 Nov 15:15:10 15:23:46 64° 268° (W) 15:32:16 435.215
ITUPSAT 1 21 Nov 15:27:22 15:31:26 28° 297° (WNW) 15:35:28 437.325
SWISSCUBE 21 Nov 15:40:46 15:44:16 20° 300° (WNW) 15:47:45 437.505
JAS-2 21 Nov 15:42:55 15:49:38 35° 59° (ENE) 15:56:31 435.910
AUBIESAT-1 21 Nov 15:51:53 15:54:58 17° 308° (NW) 15:58:04 437.475
STARS 21 Nov 15:51:58 15:56:22 75° 286° (WNW) 16:00:44 437.465
M-CUBED/EXP-1 PRIME 21 Nov 15:53:42 15:56:33 16° 309° (NW) 15:59:26 437.505
Gurwin Techsat 1B 21 Nov 16:02:54 16:05:52 15° 273° (W) 16:08:51 435.225
BEESAT 21 Nov 16:14:14 16:16:07 12° 306° (NW) 16:18:01 436.000
Cubesat XI-IV 21 Nov 16:20:08 16:23:25 17° 55° (NE) 16:26:43 437.490
KKS-1 21 Nov 16:22:34 16:26:22 28° 295° (WNW) 16:30:09 437.445
AO-7 21 Nov 16:30:42 16:38:45 53° 258° (WSW) 16:46:53 29.400- 29.500
O/OREOS (USA 219) 21 Nov 16:43:16 16:47:44 67° 62° (ENE) 16:52:11 437.305
MaSat-1 21 Nov 16:51:02 16:54:01 52° 117° (ESE) 16:56:44 437.345
MOZHAYETS 4 21 Nov 16:51:25 16:55:12 24° 93° (E) 16:58:57
VERMONT LUNAR 21 Nov 16:53:09 16:53:57 11° 154° (SSE) 16:54:45 437.305
CUTE-I 21 Nov 17:01:08 17:05:51 32° 63° (ENE) 17:10:34 437.470
RS-15 21 Nov 17:12:18 17:22:47 55° 115° (ESE) 17:33:17 29.354- 29.394
YUBILEINY 21 Nov 17:14:48 17:18:41 14° 290° (WNW) 17:22:34 435.215
JAS-2 21 Nov 17:26:40 17:34:09 66° 259° (W) 17:42:02 435.910
STARS 21 Nov 17:31:04 17:32:04 11° 305° (NW) 17:33:05 437.465
Cubesat XI-IV 21 Nov 17:57:24 18:02:47 89° 74° (ENE) 18:08:12 437.490
PHONESAT 2.4 21 Nov 17:58:34 18:01:02 17° 162° (SSE) 18:03:29 2401.200-2431.200
PRISM 21 Nov 18:13:55 18:17:42 30° 96° (E) 18:21:26 437.425
CUBESAT XI-V 21 Nov 18:19:32 18:22:20 16° 88° (E) 18:25:07 437.345
O/OREOS (USA 219) 21 Nov 18:24:01 18:26:35 15° 261° (W) 18:29:10 437.305
HO-68 21 Nov 18:27:15 18:31:51 19° 47° (NE) 18:36:27 435.675
MaSat-1 21 Nov 18:28:03 18:28:56 11° 313° (NW) 18:29:48 437.345
MOZHAYETS 4 21 Nov 18:28:11 18:32:37 44° 291° (WNW) 18:37:02
VERMONT LUNAR 21 Nov 18:28:48 18:31:40 22° 171° (S) 18:34:32 437.305
STRAND 1 21 Nov 18:30:19 18:34:00 20° 91° (E) 18:37:39 437.568
AO-7 21 Nov 18:33:19 18:33:34 10° 280° (W) 18:33:49 29.400- 29.500
CUTE-I 21 Nov 18:40:44 18:45:48 42° 262° (W) 18:50:54 437.470
BRITE-PL 21 Nov 18:54:57 18:56:00 11° 56° (NE) 18:57:01 437.365/2234.400
GONETS M04 21 Nov 19:07:45 19:15:52 38° 66° (ENE) 19:23:52
CANX-2 21 Nov 19:08:51 19:10:37 13° 58° (ENE) 19:12:24 2200.000
JAS-2 21 Nov 19:16:47 19:20:41 15° 280° (W) 19:24:40 435.910
RS-15 21 Nov 19:24:29 19:35:12 57° 321° (NW) 19:46:05 29.354- 29.394
COMPASS 1 21 Nov 19:26:10 19:28:02 13° 58° (ENE) 19:29:54 437.405
PHONESAT 2.4 21 Nov 19:36:05 19:39:11 25° 179° (S) 19:42:16 2401.200-2431.200
Cubesat XI-IV 21 Nov 19:40:45 19:43:37 14° 273° (W) 19:46:30 437.490
CUTE 1.7 & AOD 2 21 Nov 19:42:18 19:45:38 23° 64° (ENE) 19:48:59 437.475
PRISM 21 Nov 19:49:30 19:53:14 30° 294° (WNW) 19:56:57 437.425
UKube-1 21 Nov 19:50:05 19:51:37 12° 55° (NE) 19:53:09 .
CUBESAT XI-V 21 Nov 19:55:36 20:00:18 69° 287° (WNW) 20:04:55 437.345
Oscar 11 21 Nov 20:03:53 20:06:25 16° 60° (ENE) 20:08:58 145.826/435.025
DOVE 4 21 Nov 20:05:51 20:09:32 24° 65° (ENE) 20:13:04 437.250
VERMONT LUNAR 21 Nov 20:06:40 20:09:34 23° 188° (S) 20:12:28 437.305
SHINDAISAT 21 Nov 20:07:51 20:09:45 77° 234° (SW) 20:11:38 437.305
STRAND 1 21 Nov 20:08:34 20:13:38 63° 289° (WNW) 20:18:40 437.568
HO-68 21 Nov 20:11:15 20:18:22 70° 68° (ENE) 20:25:32 435.675
DX 1 21 Nov 20:18:41 20:22:00 21° 62° (ENE) 20:25:20 434.975-435.025
SEEDS 21 Nov 20:20:40 20:24:40 47° 71° (ENE) 20:28:43 437.485
GOMX 1 21 Nov 20:24:48 20:29:26 45° 70° (ENE) 20:33:47 467.674
BRITE-PL 21 Nov 20:28:41 20:33:46 66° 73° (ENE) 20:38:28 437.365/2234.400
VELOX 1 21 Nov 20:30:21 20:31:04 10° 54° (NE) 20:31:48 145.980
AIST 1 21 Nov 20:37:12 20:41:31 59° 95° (E) 20:45:53
CANX-2 21 Nov 20:41:43 20:45:56 86° 256° (WSW) 20:50:12 2200.000
ZACube-1 21 Nov 20:43:28 20:46:12 17° 61° (ENE) 20:48:56 437.345
AAUSAT CUBESAT 2 21 Nov 20:47:05 20:51:12 68° 74° (ENE) 20:55:22 437.432
BEESAT 2 21 Nov 20:49:45 20:50:31 10° 108° (ESE) 20:51:17 435.950
AISAT 21 Nov 20:51:14 20:54:01 17° 59° (ENE) 20:56:49 437.250
COMPASS 1 21 Nov 20:59:00 21:03:10 82° 257° (WSW) 21:07:23 437.405
HUMSAT D 21 Nov 21:02:34 21:05:12 17° 61° (ENE) 21:07:50 437.325/437.525
GONETS M04 21 Nov 21:04:31 21:13:09 60° 269° (W) 21:21:42
PCSat 21 Nov 21:06:25 21:11:36 49° 116° (ESE) 21:16:50 145.827
PHONESAT 2.4 21 Nov 21:14:44 21:17:21 18° 196° (SSW) 21:19:58 2401.200-2431.200
CINEMA 3 21 Nov 21:16:07 21:20:33 68° 74° (ENE) 21:24:49 145.822/145.860
DELFI C3 21 Nov 21:16:19 21:20:19 62° 73° (ENE) 21:24:23 145.870
CUTE 1.7 & AOD 2 21 Nov 21:17:25 21:21:23 40° 262° (W) 21:25:23 437.475
FUNcube-1 21 Nov 21:18:32 21:22:23 35° 68° (ENE) 21:26:12 145.935
CUBEBUG 2 21 Nov 21:22:08 21:26:17 50° 71° (ENE) 21:30:23 437.445
50 SAT 21 Nov 21:22:26 21:25:30 21° 64° (ENE) 21:28:34 437.505
UKube-1 21 Nov 21:22:42 21:27:04 82° 74° (ENE) 21:31:28 .
CUBEBUG 1 21 Nov 21:22:55 21:24:55 13° 57° (ENE) 21:26:54 437.445
UWE-3 21 Nov 21:32:17 21:36:28 56° 72° (ENE) 21:40:35 435.000/436.395/437.385
CUBESAT XI-V 21 Nov 21:35:41 21:36:52 11° 306° (NW) 21:38:02 437.345
Oscar 11 21 Nov 21:37:49 21:42:06 69° 258° (WSW) 21:46:25 145.826/435.025
RS-15 21 Nov 21:40:44 21:50:25 34° 354° (N) 22:00:19 29.354- 29.394
DOVE 4 21 Nov 21:42:38 21:47:08 44° 261° (W) 21:51:24 437.250
ESTCUBE 1 21 Nov 21:45:21 21:48:46 21° 62° (ENE) 21:52:12 437.505/2401.250
VERMONT LUNAR 21 Nov 21:46:02 21:47:19 12° 204° (SSW) 21:48:35 437.305
STRAND 1 21 Nov 21:50:15 21:51:51 11° 309° (NW) 21:53:26 437.568
DX 1 21 Nov 21:53:43 21:57:58 48° 260° (W) 22:02:14 434.975-435.025
SEEDS 21 Nov 21:57:48 22:00:47 19° 269° (W) 22:03:47 437.485
HO-68 21 Nov 22:00:46 22:06:40 27° 268° (W) 22:12:37 435.675
VELOX 1 21 Nov 22:02:23 22:06:51 69° 73° (ENE) 22:11:19 145.980
GOMX 1 21 Nov 22:03:51 22:07:44 24° 266° (W) 22:11:27 467.674
BRITE-PL 21 Nov 22:09:16 22:12:38 18° 269° (W) 22:15:53 437.365/2234.400
BEESAT 3 21 Nov 22:12:25 22:16:31 70° 125° (SE) 22:20:42 437.485
AIST 1 21 Nov 22:16:48 22:19:38 17° 295° (WNW) 22:22:29
ZACube-1 21 Nov 22:18:02 22:22:13 57° 259° (W) 22:26:22 437.345
BEESAT 2 21 Nov 22:23:56 22:28:04 82° 126° (SE) 22:32:18 435.950
AAUSAT CUBESAT 2 21 Nov 22:25:23 22:27:23 13° 272° (W) 22:29:23 437.432
AISAT 21 Nov 22:25:41 22:30:10 70° 257° (WSW) 22:34:40 437.250
BUGSAT 1 21 Nov 22:27:13 22:28:00 10° 87° (E) 22:28:47 437.445
TIGRISAT 21 Nov 22:30:48 22:34:09 21° 93° (E) 22:37:32 435.000
HUMSAT D 21 Nov 22:36:32 22:40:38 58° 259° (W) 22:44:43 437.325/437.525
AIST 2 21 Nov 22:37:33 22:41:44 60° 123° (ESE) 22:45:59 435.215
UNISAT 6 21 Nov 22:41:29 22:45:15 27° 95° (E) 22:49:04 437.425
POLYITAN 1 21 Nov 22:44:28 22:47:39 20° 92° (E) 22:50:48 437.675
QB50P2 21 Nov 22:48:19 22:51:40 22° 93° (E) 22:54:59 145.880/145.840
PCSat 21 Nov 22:50:15 22:55:13 35° 317° (NW) 23:00:12 145.827
DELFI C3 21 Nov 22:53:56 22:56:04 14° 271° (W) 22:58:13 145.870
FUNcube-1 21 Nov 22:55:19 22:58:50 25° 266° (W) 23:02:19 145.935
CINEMA 3 21 Nov 22:55:51 22:58:12 14° 271° (W) 23:00:30 145.822/145.860
CUBEBUG 1 21 Nov 22:56:10 23:00:37 89° 79° (ENE) 23:05:07 437.445
50 SAT 21 Nov 22:56:47 23:00:37 41° 262° (W) 23:04:28 437.505
DUCHIFAT 1 21 Nov 22:57:18 23:00:54 27° 95° (E) 23:04:28 145.980
CUBEBUG 2 21 Nov 23:00:22 23:03:18 18° 269° (W) 23:06:12 437.445
UKube-1 21 Nov 23:02:14 23:03:50 12° 272° (W) 23:05:26 .
SPROUT 21 Nov 23:03:55 23:07:36 28° 66° (ENE) 23:11:17 437.525
GONETS M04 21 Nov 23:04:38 23:07:56 13° 292° (WNW) 23:11:15
TISAT 1 21 Nov 23:08:26 23:12:19 35° 68° (ENE) 23:16:12 437.305
ANTELSAT 21 Nov 23:09:20 23:13:37 51° 100° (E) 23:17:58 437.575/2403.000
UWE-3 21 Nov 23:10:43 23:13:23 16° 270° (W) 23:16:01 435.000/436.395/437.385
NANOSAT C BR1 21 Nov 23:15:39 23:19:40 41° 98° (E) 23:23:39 145.865
ESTCUBE 1 21 Nov 23:20:53 23:25:19 52° 260° (W) 23:29:48 437.505/2401.250
QB50P1 21 Nov 23:24:49 23:28:57 51° 100° (E) 23:33:03 145.935-145.965
ITUPSAT 1 21 Nov 23:25:23 23:27:14 12° 54° (NE) 23:29:06 437.325
AUBIESAT-1 21 Nov 23:34:53 23:38:19 27° 57° (ENE) 23:42:01 437.475
M-CUBED/EXP-1 PRIME 21 Nov 23:36:40 23:40:12 30° 59° (ENE) 23:44:01 437.505
SWISSCUBE 21 Nov 23:36:54 23:39:50 16° 57° (ENE) 23:42:48 437.505
VELOX 1 21 Nov 23:41:25 23:43:55 15° 271° (W) 23:46:26 145.980
POPSAT HIP 1 21 Nov 23:48:55 23:53:11 90° 292° (WNW) 23:57:24 437.405
BEESAT 3 21 Nov 23:51:55 23:55:11 22° 325° (NW) 23:58:30 437.485
RS-15 21 Nov 23:55:52 00:06:18 44° 27° (NNE) 00:17:05 29.354- 29.394
BUGSAT 1 21 Nov 23:59:58 00:04:08 82° 286° (WNW) 00:08:12 437.445
BEESAT 2 22 Nov 00:03:46 00:06:55 20° 327° (NNW) 00:10:05 435.950
TIGRISAT 22 Nov 00:06:58 00:11:07 45° 290° (WNW) 00:15:20 435.000
BEESAT 22 Nov 00:07:42 00:11:41 27° 63° (ENE) 00:15:42 436.000
AIST 2 22 Nov 00:17:09 00:20:43 25° 324° (NW) 00:24:19 435.215
UNISAT 6 22 Nov 00:18:08 00:22:07 35° 292° (WNW) 00:26:10 437.425
POLYITAN 1 22 Nov 00:19:48 00:23:50 44° 290° (WNW) 00:27:50 437.675
QB50P2 22 Nov 00:23:47 00:27:46 40° 291° (WNW) 00:31:43 145.880/145.840
DUCHIFAT 1 22 Nov 00:33:02 00:36:50 33° 293° (WNW) 00:40:37 145.980
CUBEBUG 1 22 Nov 00:36:23 00:37:40 11° 273° (W) 00:38:56 437.445
PCSat 22 Nov 00:37:47 00:40:19 13° 341° (NNW) 00:42:50 145.827
